カタログに戻る

ONEWEB-0593

運用中通信PO
NORAD 54659·PAYLOAD·🇬🇧 United Kingdom

打ち上げ Dec 8, 2022 から Cape Canaveral Space Force Station

Loading…

次のパス (今後24時間)

TLE

最新Source: CelesTrak SupGP

元期: Sep 15, 2026, 01:23 UTC

1 54659C 22166T   26258.05814074 -.00004348  00000+0 -10542-1 0  2589
2 54659  87.9281 226.0867 0002267  83.4129  26.7189 13.21831139    17

AllMySatでONEWEB-0593をリアルタイム追跡

Download on the App Store